• In Uzbekistan
  • List of Countries
  • For 7 days
  • Water Temperature
  • Satellite Maps
  • Weather Map
  • Weather Widgets
  • user-avatar
    Login

    Hourly Weather Halifax

    Today, 19 November, Sunday

    Time Temperature Precipitation Wind Pressure Humidity
    00:00 +2°C° 0 mm 2 mps 753 mmHg 78%
    01:00 +2°C° 0 mm 2 mps 753 mmHg 79%
    02:00 +2°C° 0 mm 2 mps 753 mmHg 79%
    03:00 +2°C° 0 mm 3 mps 752 mmHg 79%
    04:00 +3°C° 0 mm 4 mps 752 mmHg 78%
    05:00 +2°C° 0 mm 5 mps 751 mmHg 78%
    06:00 +4°C° 0.2 mm 6 mps 750 mmHg 82%
    07:00 +6°C° 0.2 mm 7 mps 749 mmHg 85%
    08:00 +9°C° 0 mm 8 mps 748 mmHg 89%
    09:00 +10°C° 0.3 mm 8 mps 748 mmHg 90%
    10:00 +12°C° 0.3 mm 8 mps 747 mmHg 91%
    11:00 +13°C° 0.3 mm 9 mps 746 mmHg 92%
    12:00 +15°C° 0.3 mm 9 mps 745 mmHg 91%
    13:00 +14°C° 0.3 mm 10 mps 743 mmHg 90%
    14:00 +16°C° 0.3 mm 11 mps 742 mmHg 90%
    15:00 +16°C° 0.9 mm 11 mps 741 mmHg 90%
    16:00 +15°C° 0.9 mm 12 mps 741 mmHg 90%
    17:00 +15°C° 0.9 mm 13 mps 740 mmHg 90%
    18:00 +15°C° 3.4 mm 12 mps 739 mmHg 88%
    19:00 +14°C° 3.4 mm 11 mps 739 mmHg 87%
    20:00 +13°C° 3.4 mm 10 mps 739 mmHg 86%
    21:00 +11°C° 0.1 mm 10 mps 740 mmHg 85%
    22:00 +8°C° 0.1 mm 10 mps 740 mmHg 84%
    23:00 +6°C° 0.1 mm 9 mps 741 mmHg 83%

    Tomorrow, 20 November, Monday

    Time Temperature Precipitation Wind Pressure Humidity
    00:00 +5°C° 0 mm 9 mps 742 mmHg 83%
    01:00 +2°C° 0 mm 8 mps 742 mmHg 83%
    02:00 +1°C° 0 mm 8 mps 743 mmHg 82%
    03:00 +1°C° 0 mm 8 mps 744 mmHg 81%
    04:00 0°C° 0 mm 7 mps 744 mmHg 81%
    05:00 0°C° 0 mm 7 mps 745 mmHg 80%
    06:00 0°C° 0 mm 7 mps 745 mmHg 79%
    07:00 0°C° 0 mm 8 mps 746 mmHg 77%
    08:00 0°C° 0 mm 8 mps 747 mmHg 76%
    09:00 0°C° 0.1 mm 8 mps 747 mmHg 70%
    10:00 0°C° 0.1 mm 8 mps 747 mmHg 64%
    11:00 +1°C° 0.1 mm 8 mps 747 mmHg 59%
    12:00 +1°C° 0.1 mm 9 mps 747 mmHg 58%
    13:00 0°C° 0.1 mm 9 mps 747 mmHg 58%
    14:00 0°C° 0.1 mm 9 mps 747 mmHg 57%
    15:00 -1°C° 0 mm 9 mps 748 mmHg 60%
    16:00 -3°C° 0 mm 9 mps 748 mmHg 63%
    17:00 -3°C° 0 mm 9 mps 749 mmHg 66%
    18:00 -4°C° 0.1 mm 9 mps 750 mmHg 67%
    19:00 -4°C° 0.1 mm 9 mps 750 mmHg 68%
    20:00 -4°C° 0.1 mm 9 mps 751 mmHg 69%
    21:00 -5°C° 0.1 mm 9 mps 752 mmHg 68%
    22:00 -5°C° 0.1 mm 9 mps 753 mmHg 67%
    23:00 -6°C° 0.1 mm 9 mps 754 mmHg 66%

    Day after tomorrow, 21 November, Tuesday

    Time Temperature Precipitation Wind Pressure Humidity
    00:00 -6°C° 0 mm 9 mps 754 mmHg 66%
    01:00 -7°C° 0 mm 8 mps 755 mmHg 66%
    02:00 -7°C° 0 mm 8 mps 756 mmHg 66%
    03:00 -7°C° 0 mm 8 mps 757 mmHg 65%
    04:00 -7°C° 0 mm 8 mps 757 mmHg 64%
    05:00 -7°C° 0 mm 8 mps 758 mmHg 63%
    06:00 -7°C° 0 mm 7 mps 759 mmHg 63%
    07:00 -6°C° 0 mm 7 mps 760 mmHg 63%
    08:00 -6°C° 0 mm 7 mps 761 mmHg 63%
    09:00 -3°C° 0 mm 7 mps 761 mmHg 58%
    10:00 -1°C° 0 mm 6 mps 762 mmHg 53%
    11:00 +1°C° 0 mm 6 mps 762 mmHg 48%
    12:00 +2°C° 0 mm 6 mps 762 mmHg 51%
    13:00 +3°C° 0 mm 6 mps 762 mmHg 54%
    14:00 +4°C° 0 mm 6 mps 761 mmHg 57%
    15:00 +4°C° 0 mm 6 mps 761 mmHg 65%
    16:00 +3°C° 0 mm 6 mps 761 mmHg 74%
    17:00 +2°C° 0 mm 6 mps 761 mmHg 83%
    18:00 +2°C° 0 mm 7 mps 761 mmHg 85%
    19:00 +3°C° 0 mm 7 mps 761 mmHg 88%
    20:00 +3°C° 0 mm 7 mps 762 mmHg 90%
    21:00 +4°C° 0 mm 7 mps 762 mmHg 91%
    22:00 +4°C° 0 mm 7 mps 762 mmHg 92%
    23:00 +4°C° 0 mm 7 mps 762 mmHg 93%

    22 November, Wednesday

    Time Temperature Precipitation Wind Pressure Humidity
    00:00 +4°C° 0 mm 7 mps 762 mmHg 93%
    01:00 +4°C° 0 mm 7 mps 762 mmHg 93%
    02:00 +4°C° 0 mm 7 mps 761 mmHg 93%
    03:00 +4°C° 0 mm 7 mps 761 mmHg 93%
    04:00 +4°C° 0 mm 6 mps 761 mmHg 92%
    05:00 +4°C° 0 mm 6 mps 761 mmHg 92%
    06:00 +4°C° 0 mm 6 mps 761 mmHg 91%
    07:00 +5°C° 0 mm 6 mps 761 mmHg 90%
    08:00 +6°C° 0 mm 5 mps 762 mmHg 88%
    09:00 +8°C° 0 mm 5 mps 761 mmHg 84%
    10:00 +10°C° 0 mm 5 mps 761 mmHg 80%
    11:00 +13°C° 0 mm 5 mps 760 mmHg 76%
    12:00 +14°C° 0.1 mm 6 mps 759 mmHg 75%
    13:00 +15°C° 0.1 mm 7 mps 758 mmHg 74%
    14:00 +15°C° 0.1 mm 8 mps 757 mmHg 72%
    15:00 +15°C° 0.3 mm 8 mps 756 mmHg 77%
    16:00 +13°C° 0.3 mm 8 mps 755 mmHg 81%
    17:00 +13°C° 0.3 mm 9 mps 755 mmHg 86%
    18:00 +13°C° 1.2 mm 9 mps 754 mmHg 86%
    19:00 +13°C° 1.2 mm 9 mps 753 mmHg 87%
    20:00 +13°C° 1.2 mm 9 mps 753 mmHg 88%
    21:00 +12°C° 3.7 mm 8 mps 752 mmHg 89%
    22:00 +11°C° 3.7 mm 7 mps 751 mmHg 91%
    23:00 +10°C° 3.7 mm 6 mps 750 mmHg 93%

    23 November, Thursday

    Time Temperature Precipitation Wind Pressure Humidity
    00:00 +9°C° 3.8 mm 7 mps 749 mmHg 93%
    01:00 +8°C° 3.8 mm 7 mps 747 mmHg 93%
    02:00 +6°C° 3.8 mm 7 mps 746 mmHg 94%
    03:00 +5°C° 0.1 mm 8 mps 747 mmHg 92%
    04:00 +3°C° 0.1 mm 9 mps 747 mmHg 89%
    05:00 +2°C° 0.1 mm 9 mps 748 mmHg 87%
    06:00 +1°C° 0 mm 9 mps 750 mmHg 85%
    07:00 0°C° 0 mm 9 mps 751 mmHg 83%
    08:00 -1°C° 0 mm 9 mps 752 mmHg 81%
    09:00 -1°C° 0 mm 8 mps 753 mmHg 77%
    10:00 -1°C° 0 mm 8 mps 753 mmHg 74%
    11:00 -1°C° 0 mm 7 mps 754 mmHg 70%
    12:00 0°C° 0 mm 7 mps 754 mmHg 68%
    13:00 +1°C° 0 mm 6 mps 754 mmHg 65%
    14:00 +1°C° 0 mm 6 mps 755 mmHg 62%
    15:00 0°C° 0 mm 5 mps 755 mmHg 66%
    16:00 -1°C° 0 mm 4 mps 755 mmHg 70%
    17:00 -2°C° 0 mm 4 mps 756 mmHg 74%
    18:00 -1°C° 0 mm 3 mps 756 mmHg 75%
    19:00 -1°C° 0 mm 3 mps 757 mmHg 77%
    20:00 -2°C° 0 mm 3 mps 757 mmHg 78%
    21:00 -2°C° 0 mm 2 mps 757 mmHg 78%
    22:00 -2°C° 0 mm 2 mps 757 mmHg 78%
    23:00 -2°C° 0 mm 2 mps 757 mmHg 78%

    24 November, Friday

    Time Temperature Precipitation Wind Pressure Humidity
    00:00 -2°C° 0 mm 2 mps 757 mmHg 78%
    01:00 -2°C° 0 mm 3 mps 757 mmHg 78%
    02:00 -2°C° 0 mm 3 mps 757 mmHg 79%
    03:00 -2°C° 0 mm 3 mps 756 mmHg 79%
    04:00 -2°C° 0 mm 3 mps 756 mmHg 79%
    05:00 -2°C° 0 mm 3 mps 755 mmHg 79%
    06:00 -1°C° 0 mm 3 mps 755 mmHg 77%
    07:00 -1°C° 0 mm 3 mps 755 mmHg 74%
    08:00 0°C° 0 mm 3 mps 755 mmHg 72%
    09:00 +1°C° 0 mm 4 mps 755 mmHg 68%
    10:00 +2°C° 0 mm 5 mps 754 mmHg 64%
    11:00 +4°C° 0 mm 6 mps 754 mmHg 59%
    12:00 +4°C° 0.1 mm 6 mps 753 mmHg 60%
    13:00 +5°C° 0.1 mm 7 mps 752 mmHg 61%
    14:00 +5°C° 0.1 mm 7 mps 751 mmHg 62%
    15:00 +4°C° 0.1 mm 7 mps 751 mmHg 68%
    16:00 +3°C° 0.1 mm 7 mps 751 mmHg 74%
    17:00 +2°C° 0.1 mm 7 mps 751 mmHg 80%
    18:00 0°C° 0.1 mm 7 mps 752 mmHg 79%
    19:00 -1°C° 0.1 mm 7 mps 753 mmHg 77%
    20:00 -2°C° 0.1 mm 8 mps 753 mmHg 76%
    21:00 -4°C° 0 mm 8 mps 754 mmHg 72%
    22:00 -5°C° 0 mm 8 mps 754 mmHg 68%
    23:00 -7°C° 0 mm 8 mps 755 mmHg 64%
    Show more